Tracking 25949 objects as of 9-Aug-2022
HD Live streaming from Space Station
objects crossing your sky now

STARLINK-3795

Track STARLINK-3795 now!
10-day predictions
STARLINK-3795 is classified as:


NORAD ID: 52264
Int'l Code: 2022-041D
Perigee: 545.3 km
Apogee: 548.6 km
Inclination: 53.2 °
Period: 95.4 minutes
Semi major axis: 6917 km
RCS: Unknown
Launch date: April 21, 2022
Source: United States (US)
Launch site: AIR FORCE EASTERN TEST RANGE (AFETR)
aabbcc
Your satellite tracking list
Your tracking list is empty




NASA's NSSDC Master Catalog

Two Line Element Set (TLE):
1 52264U 22041D   22220.91667824  .00042327  00000-0  26631-2 0  9997
2 52264  53.2143 224.4229 0002333  51.1288 199.0446 15.08819761  1303
Source of the keplerian elements: AFSPC